Regional Weather Roundup
Issued by NWS

Home | Current Version | Previous Version | Graphics & Text | Print | Product List | Glossary On
Versions: 1 2 3 4 5 6 7 8 9 10 11 12 13 14 15 16 17 18 19 20 21 22 23 24 25 26 27 28 29 30 31 32 33 34 35 36 37 38 39 40 41 42 43 44 45 46 47 48 49 50
158
ASUS45 KSLC 280310
RWRUT

UTAH REGIONAL WEATHER ROUNDUP
NATIONAL WEATHER SERVICE SALT LAKE CITY UT
900 PM MDT WED JUL 27 2016

UTZ001>011-023>025-280400-

NORTHERN UTAH

CITY           SKY/WX    TMP DP  RH WIND       PRES   REMARKS
BRIGHAM CITY     N/A     88  39  17 CALM      30.03S
HILL AFB       CLEAR     85  34  16 NE3       30.07F
LOGAN          CLEAR     85  51  31 CALM      30.05R
OGDEN          CLEAR     87  37  17 E3        30.03F
PROVO AIRPORT  CLEAR     84  54  34 CALM      30.05S
SALT LAKE CITY CLEAR     94  29  10 E6        30.01F
VERNAL         CLEAR     88  25  10 CALM      30.09R
WENDOVER       CLEAR     91  32  12 CALM      30.01S
HEBER CITY     CLEAR     81  30  16 CALM      30.15S

$$

UTZ012>022-026-027-280400-

SOUTHERN/CENTRAL UTAH

CITY           SKY/WX    TMP DP  RH WIND       PRES   REMARKS
BLANDING       CLEAR     81  31  16 N10       30.22R
BRYCE CANYON   PTCLDY    78  32  18 NE3       30.33R
CEDAR CITY     CLEAR     85  29  13 SW6       30.11R
DELTA          CLEAR     88  30  12 NE3       30.05S
MILFORD        CLEAR     89  21   8 NE7       30.06R
MOAB/CYNLANDS  CLEAR     91  26   9 E3        29.99R
PRICE          CLEAR     85  22  10 N9        30.17R
ST GEORGE      CLEAR    106  37   9 SW10      29.86R HX 100

$$

REGIONAL REPORTS     COLORADO/ARIZONA

CITY           SKY/WX    TMP DP  RH WIND       PRES   REMARKS
CRAIG, CO      CLEAR     68  31  25 CALM      30.19R
GRAND JUNCTION CLEAR     85  27  12 NE6       30.04R
RIFLE          CLEAR     83  25  12 CALM      30.12R
MONTROSE       CLEAR     79  43  27 SE5       30.15R
CORTEZ         CLEAR     77  40  26 E5        30.14R
PAGE, AZ       CLEAR     98  31   9 VRB3      29.97R HX  92
GRAND CANYON   CLEAR     82  43  25 W13       30.24R
KINGMAN        PTCLDY    91  44  19 S10       29.96R
FLAGSTAFF      PTCLDY    76  45  33 VRB3      30.27R

$$

REGIONAL REPORTS    NEVADA/IDAHO/WYOMING

CITY           SKY/WX    TMP DP  RH WIND       PRES   REMARKS
LAS VEGAS, NV  PTCLDY   107  38   9 SW8       29.76S HX 101
ELY            PTCLDY    86  20   9 CALM      30.18R
ELKO           CLEAR     90  18   7 NW8       30.08R
POCATELLO, ID  CLEAR     82  33  17 S8        30.04S
BURLEY         CLEAR     77  54  44 CALM      30.00S
EVANSTON, WY   CLEAR     75  24  15 W8        30.31R
ROCK SPRINGS   CLEAR     79  18  10 W12       30.24R
KEMMERER         N/A    N/A N/A N/A NW7       30.32S

$$




USA.gov is the U.S. government's official web portal to all federal, state and local government web resources and services.